Tracking 31027 objects as of 19-Jul-2025
HD Live streaming from Space Station
objects crossing your sky now

COSMOS 2251 DEB

Track COSMOS 2251 DEB now!
10-day predictions


NORAD ID: 35061
Int'l Code: 1993-036AHQ
Perigee: 650.0 km
Apogee: 710.2 km
Inclination: 74.0 °
Period: 98.2 minutes
Semi major axis: 7051 km
RCS: 0.009 m2 (small)
Launch date: June 16, 1993
Source: Commonwealth of Independent States (former USSR) (CIS)
Launch site: PLESETSK MISSILE AND SPACE COMPLEX (PKMTR)

Note: This is SATELLITE DEBRIS
Your satellite tracking list
NOAA 16 DEB
Track 1 satellite(s)




NASA's NSSDC Master Catalog

Two Line Element Set (TLE):
1 35061U 93036AHQ 25198.51485815  .00001896  00000-0  34498-3 0  9993
2 35061  74.0433 231.5644 0042663  19.7665 340.5145 14.66276937864010
Source of the keplerian elements: AFSPC